Regional Weather Roundup
Issued by NWS

Home | Current Version | Previous Version | Text Only | Print | Product List | Glossary On
Versions: 1 2 3 4 5 6 7 8 9 10 11 12 13 14 15 16 17 18 19 20 21 22 23 24 25 26 27 28 29 30 31 32 33 34 35 36 37 38 39 40 41 42 43 44 45 46 47 48 49 50
000
ASUS43 KMKX 161911
RWRWI

WISCONSIN REGIONAL WEATHER ROUNDUP
NATIONAL WEATHER SERVICE MILWAUKEE/SULLIVAN WI
200 PM CDT WED APR 16 2014

NOTE: "FAIR" INDICATES FEW OR NO CLOUDS BELOW 12,000 FEET WITH NO
SIGNIFICANT WEATHER AND/OR OBSTRUCTIONS TO VISIBILITY.

WIZ001-002-006>008-014>016-023>028-162000-
NORTHWEST WISCONSIN

CITY           SKY/WX    TMP DP  RH WIND       PRES   REMARKS
SUPERIOR ARPT  LGT SNOW  28  26  93 NE15G23   30.14F VSB 3/4 WCI  16
ASHLAND        SNOW      27  25  92 NE13      30.16F VSB 1/4 WCI  16
HAYWARD        SNOW      28  25  88 NE9       30.06F VSB 1/4 WCI  19
SIREN          SNOW      29  28  95 E12       30.02S VSB 1/4 WCI  20
RICE LAKE      CLOUDY    32  26  78 E13G18    30.01S WCI  23
LADYSMITH      CLOUDY    33  27  78 E14       30.05F WCI  23
EAU CLAIRE     CLOUDY    44  27  51 E16       29.95F
MENOMONIE      CLOUDY    39  30  69 E17       29.94F WCI  30
NEW RICHMOND   CLOUDY    33  27  79 E15       29.94S WCI  23
OSCEOLA        FLURRIES  33  28  80 E15       29.97F WCI  23
$$

WIZ003>005-009-010-017-018-162000-
NORTH CENTRAL WISCONSIN

CITY           SKY/WX    TMP DP  RH WIND       PRES   REMARKS
WOODRUFF       LGT SNOW  32  27  81 E12G20    30.10F VSB 3/4 WCI  23
RHINELANDER    LGT SNOW  28  24  85 E21G28    30.11F FOG     WCI  15
EAGLE RIVER    LGT SNOW  28  23  84 E13       30.13F VSB 3/4 WCI  17
LAND O LAKES   SNOW      27  24  87 E10G18    30.16F VSB 1/2 WCI  17
PHILLIPS       CLOUDY    28  24  84 E13       30.06F WCI  18
TOMAHAWK       CLOUDY    30  25  81 E7G17     30.10F WCI  23
MEDFORD        CLOUDY    33  26  77 E14G24    30.04F WCI  23
MERRILL        CLOUDY    33  27  80 CALM      30.10S
$$

WIZ029-030-035-036-043>047-162000-
CENTRAL WISCONSIN

CITY           SKY/WX    TMP DP  RH WIND       PRES   REMARKS
WAUSAU         CLOUDY    34  28  79 SE20G29   30.08F WCI  23
MOSINEE        MOSUNNY   36  28  75 SE18G28   30.08F WCI  25
MARSHFIELD     CLOUDY    39  27  62 SE21G28   30.03F WCI  29
STEVENS POINT  CLOUDY    37  25  60 SE12G22   30.09F WCI  30
WAUPACA        CLOUDY    45  27  49 SE18G24   30.13F
WAUTOMA        CLOUDY    45  28  51 SE23      30.11F
WISC RAPIDS    CLOUDY    42  27  55 SE13G25   30.07F
CAMP DOUGLAS   CLOUDY    46  30  53 SE17G28   30.00F
$$

WIZ011>013-019>022-031-037>040-048>050-162000-
NORTHEAST WISCONSIN

CITY           SKY/WX    TMP DP  RH WIND       PRES   REMARKS
ANTIGO         CLOUDY    30  27  89 E21G29    30.12F WCI  17
STURGEON BAY   CLOUDY    34  25  69 SE12G20   30.29S WCI  25
GREEN BAY      PTSUNNY   39  29  67 SE20G31   30.21F WCI  29
MANITOWOC      PTSUNNY   36  29  75 SE23G29   30.25F WCI  24
APPLETON       NOT AVBL
CLINTONVILLE   PTSUNNY   39  28  65 SE14G22   30.16F WCI  31
OSHKOSH        PTSUNNY   42  28  57 SE17G28   30.14F
$$

WIZ032>034-041-042-053>061-162000-
SOUTHWEST WISCONSIN

CITY           SKY/WX    TMP DP  RH WIND       PRES   REMARKS
LA CROSSE      CLOUDY    54  27  35 S20G28    29.93F
SPARTA         PTSUNNY   50  26  39 SE9G21    29.98S
VIROQUA        FAIR      50  31  47 S23G33    29.96F
BOSCOBEL       MOSUNNY   53  27  36 S14G25    30.01F
PRAIRIE DU CHI PTSUNNY   55  26  33 SE13G30   29.97F
PLATTEVILLE    FAIR      53  30  42 SE28G36   30.04S
$$

WIZ056-057-062-063-064-067-068-162000-
SOUTH CENTRAL WISCONSIN

CITY           SKY/WX    TMP DP  RH WIND       PRES   REMARKS
BARABOO/DELLS  CLOUDY    48  28  46 S26G35    30.06S
LONE ROCK      PTSUNNY   50  29  44 SE15G31   30.04F
WATERTOWN      MOSUNNY   47  29  48 S18G26    30.14F
MADISON        PTSUNNY   49  29  46 SE30G37   30.10F
MIDDLETON      FAIR      50  28  42 S23G35    30.08F
MONROE         SUNNY     49  29  45 S26G36    30.09F
JANESVILLE     SUNNY     52  27  37 SE29G40   30.13F
$$

WIZ051-052-058>065-066-070>072-162000-
SOUTHEAST WISCONSIN

CITY           SKY/WX    TMP DP  RH WIND       PRES   REMARKS
MILWAUKEE      PTSUNNY   44  27  51 SE25G35   30.22F
WAUKESHA       MOSUNNY   45  28  53 SE21G29   30.19F
MILWAUKEE/TIMM SUNNY     45  25  45 SE17G25   30.21F
RACINE         MOSUNNY   42  28  57 SE21G32   30.24F
BURLINGTON     MOSUNNY   47  27  44 S17G28    30.17F
KENOSHA        MOSUNNY   45  28  51 SE24G35   30.21F
FOND DU LAC    PTSUNNY   44  29  55 SE15      30.15F
SHEBOYGAN      PTSUNNY   39  29  67 S16G32    30.24F WCI  30
WEST BEND      PTSUNNY   43  28  56 SE15G25   30.18F
JUNEAU         MOSUNNY   46  22  38 SE22G32   30.15F
$$

LSZ147-162-162000-
LAKE SUPERIOR

STATION/POSITION TIME  TEMP    WIND        PRES    WAVE
                       AIR SEA DIR/SP/G            HT/PER
                 (UTC) (F)     (DEG/KT/KT) (MB)    (FT/S)
DEVILS ISLAND    1900   27      70/ 15/ 16 1024.4F
PORT WING        1800   27      40/ 18/ 21 1021.7
SAXON HARBOR     1840           50/  8/ 10 1021.7F
$$

LMZ867-665-643>646-162000-
LAKE MICHIGAN

STATION/POSITION TIME  TEMP    WIND        PRES    WAVE
                       AIR SEA DIR/SP/G            HT/PER
                 (UTC) (F)     (DEG/KT/KT) (MB)    (FT/S)
NORTHPORT PIER   1800   32     170/  9/ 17 1026.8S
SISTER BAY       1823   33     170/  9/ 13   N/A
SHEBOYGAN LAKESH 1900   36     150/ 27/ 30 1024.6F
PORT WASHINGTON  1800   37     160/ 16/ 23 1024.7
MILWAUKEE LAKESH 1800   36     150/ 23/ 27   N/A
KENOSHA   LAKESH 1900   39     140/ 21/ 26   N/A
$$

TC  - TEMPERATURE IN CELSIUS
VSB - VISIBILITY IN STATUTE MILES
WCI - WIND CHILL INDEX
HX  - HEAT INDEX




USA.gov is the U.S. government's official web portal to all federal, state and local government web resources and services.